• In Österreich
  • Länderverzeichnis
  • Für 7 Tage
  • Wassertemperatur
  • Satellitenkarten
  • Wetterkarte
  • News
  • Widgets
  • user-avatar
    Anmelden

    Stündliche Wetter Tavas

    Heute, 18 Januar, Donnerstag

    Zeit Temperatur Niederschläge Wind Luftdruck Luftfeuchtigkeit
    00:00 +4°C° 0,3 mm 4 m/S 655 mmHg 87%
    01:00 +5°C° 0,3 mm 4 m/S 654 mmHg 89%
    02:00 +5°C° 0 mm 5 m/S 653 mmHg 91%
    03:00 +5°C° 0,6 mm 5 m/S 652 mmHg 91%
    04:00 +5°C° 0,6 mm 4 m/S 652 mmHg 92%
    05:00 +5°C° 0,6 mm 4 m/S 651 mmHg 93%
    06:00 +3°C° 1,6 mm 5 m/S 651 mmHg 92%
    07:00 +3°C° 1,6 mm 5 m/S 650 mmHg 91%
    08:00 +3°C° 1,6 mm 6 m/S 650 mmHg 91%
    09:00 +3°C° 1,2 mm 6 m/S 649 mmHg 88%
    10:00 +2°C° 1,2 mm 6 m/S 649 mmHg 85%
    11:00 +2°C° 1,2 mm 5 m/S 649 mmHg 82%
    12:00 +1°C° 0,9 mm 5 m/S 649 mmHg 81%
    13:00 +1°C° 0,9 mm 5 m/S 650 mmHg 80%
    14:00 0°C° 0,9 mm 5 m/S 650 mmHg 79%
    15:00 -1°C° 0,8 mm 5 m/S 650 mmHg 81%
    16:00 -3°C° 0,8 mm 6 m/S 651 mmHg 83%
    17:00 -4°C° 0,8 mm 6 m/S 651 mmHg 86%
    18:00 -5°C° 0,2 mm 6 m/S 652 mmHg 86%
    19:00 -5°C° 0,2 mm 5 m/S 653 mmHg 86%
    20:00 -5°C° 0,2 mm 5 m/S 654 mmHg 86%
    21:00 -6°C° 0,1 mm 5 m/S 655 mmHg 86%
    22:00 -6°C° 0,1 mm 5 m/S 656 mmHg 87%
    23:00 -5°C° 0,1 mm 4 m/S 657 mmHg 87%

    Morgen, 19 Januar, Freitag

    Zeit Temperatur Niederschläge Wind Luftdruck Luftfeuchtigkeit
    00:00 -7°C° 0 mm 4 m/S 657 mmHg 88%
    01:00 -6°C° 0 mm 3 m/S 657 mmHg 89%
    02:00 -6°C° 0 mm 2 m/S 658 mmHg 90%
    03:00 -6°C° 0 mm 2 m/S 658 mmHg 90%
    04:00 -6°C° 0 mm 2 m/S 658 mmHg 90%
    05:00 -7°C° 0 mm 2 m/S 658 mmHg 90%
    06:00 -7°C° 0 mm 2 m/S 659 mmHg 88%
    07:00 -6°C° 0 mm 2 m/S 660 mmHg 87%
    08:00 -6°C° 0 mm 2 m/S 660 mmHg 86%
    09:00 -5°C° 0 mm 2 m/S 661 mmHg 76%
    10:00 -3°C° 0 mm 2 m/S 662 mmHg 67%
    11:00 -2°C° 0 mm 3 m/S 662 mmHg 58%
    12:00 -1°C° 0 mm 3 m/S 662 mmHg 54%
    13:00 +1°C° 0 mm 2 m/S 662 mmHg 51%
    14:00 +2°C° 0 mm 2 m/S 662 mmHg 47%
    15:00 +1°C° 0 mm 2 m/S 662 mmHg 51%
    16:00 -1°C° 0 mm 2 m/S 662 mmHg 56%
    17:00 -2°C° 0 mm 2 m/S 662 mmHg 60%
    18:00 -3°C° 0 mm 2 m/S 662 mmHg 60%
    19:00 -3°C° 0 mm 2 m/S 662 mmHg 60%
    20:00 -4°C° 0 mm 2 m/S 663 mmHg 60%
    21:00 -1°C° 0 mm 1 m/S 663 mmHg 57%
    22:00 -1°C° 0 mm 1 m/S 663 mmHg 55%
    23:00 -1°C° 0 mm 1 m/S 663 mmHg 52%

    übermorgen, 20 Januar, Samstag

    Zeit Temperatur Niederschläge Wind Luftdruck Luftfeuchtigkeit
    00:00 -1°C° 0 mm 1 m/S 663 mmHg 49%
    01:00 -1°C° 0 mm 1 m/S 663 mmHg 47%
    02:00 0°C° 0 mm 1 m/S 663 mmHg 44%
    03:00 -2°C° 0 mm 2 m/S 663 mmHg 43%
    04:00 -2°C° 0 mm 2 m/S 663 mmHg 41%
    05:00 -2°C° 0 mm 2 m/S 662 mmHg 40%
    06:00 -2°C° 0 mm 2 m/S 663 mmHg 41%
    07:00 -1°C° 0 mm 2 m/S 663 mmHg 42%
    08:00 -1°C° 0 mm 2 m/S 663 mmHg 43%
    09:00 +2°C° 0 mm 2 m/S 664 mmHg 45%
    10:00 +4°C° 0 mm 2 m/S 664 mmHg 47%
    11:00 +6°C° 0 mm 2 m/S 665 mmHg 50%
    12:00 +7°C° 0 mm 3 m/S 665 mmHg 54%
    13:00 +8°C° 0 mm 3 m/S 665 mmHg 57%
    14:00 +8°C° 0 mm 3 m/S 664 mmHg 61%
    15:00 +7°C° 0 mm 3 m/S 664 mmHg 69%
    16:00 +4°C° 0 mm 3 m/S 664 mmHg 76%
    17:00 +4°C° 0 mm 2 m/S 663 mmHg 84%
    18:00 +3°C° 0 mm 2 m/S 663 mmHg 85%
    19:00 +2°C° 0 mm 2 m/S 663 mmHg 87%
    20:00 +1°C° 0 mm 2 m/S 663 mmHg 89%
    21:00 0°C° 0 mm 3 m/S 663 mmHg 89%
    22:00 0°C° 0 mm 3 m/S 663 mmHg 90%
    23:00 0°C° 0 mm 3 m/S 663 mmHg 90%

    21 Januar, Sonntag

    Zeit Temperatur Niederschläge Wind Luftdruck Luftfeuchtigkeit
    00:00 0°C° 0 mm 3 m/S 663 mmHg 90%
    01:00 0°C° 0 mm 3 m/S 663 mmHg 90%
    02:00 +1°C° 0 mm 3 m/S 663 mmHg 90%
    03:00 +2°C° 0 mm 2 m/S 663 mmHg 90%
    04:00 +2°C° 0 mm 2 m/S 662 mmHg 90%
    05:00 +2°C° 0 mm 2 m/S 662 mmHg 90%
    06:00 +2°C° 0 mm 2 m/S 662 mmHg 89%
    07:00 +3°C° 0 mm 2 m/S 662 mmHg 89%
    08:00 +3°C° 0 mm 2 m/S 662 mmHg 88%
    09:00 +3°C° 0 mm 3 m/S 662 mmHg 83%
    10:00 +4°C° 0 mm 3 m/S 662 mmHg 77%
    11:00 +7°C° 0 mm 3 m/S 662 mmHg 71%
    12:00 +7°C° 0 mm 3 m/S 662 mmHg 68%
    13:00 +7°C° 0 mm 4 m/S 661 mmHg 65%
    14:00 +7°C° 0 mm 4 m/S 661 mmHg 62%
    15:00 +7°C° 0 mm 3 m/S 660 mmHg 67%
    16:00 +5°C° 0 mm 3 m/S 659 mmHg 72%
    17:00 +5°C° 0 mm 2 m/S 658 mmHg 77%
    18:00 +5°C° 0 mm 2 m/S 658 mmHg 79%
    19:00 +4°C° 0 mm 2 m/S 658 mmHg 81%
    20:00 +4°C° 0 mm 2 m/S 657 mmHg 83%
    21:00 +4°C° 0,1 mm 2 m/S 657 mmHg 84%
    22:00 +3°C° 0,1 mm 2 m/S 656 mmHg 84%
    23:00 +3°C° 0,1 mm 2 m/S 656 mmHg 84%

    22 Januar, Montag

    Zeit Temperatur Niederschläge Wind Luftdruck Luftfeuchtigkeit
    00:00 +3°C° 0,2 mm 2 m/S 655 mmHg 84%
    01:00 +3°C° 0,2 mm 2 m/S 655 mmHg 84%
    02:00 +3°C° 0,2 mm 2 m/S 654 mmHg 84%
    03:00 +4°C° 0,4 mm 1 m/S 654 mmHg 85%
    04:00 +4°C° 0,4 mm 1 m/S 653 mmHg 87%
    05:00 +4°C° 0,4 mm 1 m/S 653 mmHg 88%
    06:00 +4°C° 0,4 mm 1 m/S 653 mmHg 88%
    07:00 +4°C° 0,4 mm 1 m/S 653 mmHg 88%
    08:00 +4°C° 0,4 mm 1 m/S 653 mmHg 88%
    09:00 +5°C° 0,1 mm 1 m/S 653 mmHg 83%
    10:00 +6°C° 0,1 mm 1 m/S 654 mmHg 78%
    11:00 +7°C° 0,1 mm 1 m/S 654 mmHg 73%
    12:00 +8°C° 0,2 mm 1 m/S 654 mmHg 70%
    13:00 +8°C° 0,2 mm 1 m/S 654 mmHg 67%
    14:00 +9°C° 0,2 mm 1 m/S 654 mmHg 64%
    15:00 +8°C° 0,2 mm 1 m/S 654 mmHg 69%
    16:00 +6°C° 0,2 mm 2 m/S 654 mmHg 74%
    17:00 +5°C° 0,2 mm 2 m/S 654 mmHg 79%
    18:00 +5°C° 0 mm 2 m/S 654 mmHg 82%
    19:00 +4°C° 0 mm 2 m/S 654 mmHg 85%
    20:00 +4°C° 0 mm 2 m/S 655 mmHg 88%
    21:00 +3°C° 0,2 mm 2 m/S 655 mmHg 89%
    22:00 +2°C° 0,2 mm 3 m/S 655 mmHg 90%
    23:00 +2°C° 0,2 mm 3 m/S 655 mmHg 91%

    23 Januar, Dienstag

    Zeit Temperatur Niederschläge Wind Luftdruck Luftfeuchtigkeit
    00:00 +2°C° 0,1 mm 3 m/S 655 mmHg 89%
    01:00 +1°C° 0,1 mm 3 m/S 656 mmHg 88%
    02:00 0°C° 0,1 mm 4 m/S 656 mmHg 86%
    03:00 0°C° 0 mm 4 m/S 656 mmHg 86%
    04:00 -1°C° 0 mm 4 m/S 656 mmHg 85%
    05:00 -2°C° 0 mm 4 m/S 656 mmHg 85%
    06:00 -2°C° 0 mm 4 m/S 657 mmHg 84%
    07:00 -2°C° 0 mm 4 m/S 657 mmHg 84%
    08:00 -2°C° 0 mm 4 m/S 657 mmHg 83%
    09:00 -2°C° 0 mm 4 m/S 658 mmHg 78%
    10:00 -1°C° 0 mm 4 m/S 658 mmHg 73%
    11:00 0°C° 0 mm 5 m/S 658 mmHg 68%
    12:00 0°C° 0 mm 5 m/S 658 mmHg 66%
    13:00 +1°C° 0 mm 5 m/S 658 mmHg 64%
    14:00 +1°C° 0 mm 5 m/S 658 mmHg 62%
    15:00 0°C° 0 mm 5 m/S 658 mmHg 64%
    16:00 0°C° 0 mm 4 m/S 659 mmHg 65%
    17:00 0°C° 0 mm 4 m/S 659 mmHg 67%
    18:00 -1°C° 0 mm 4 m/S 659 mmHg 70%
    19:00 -2°C° 0 mm 4 m/S 659 mmHg 73%
    20:00 -3°C° 0 mm 4 m/S 659 mmHg 76%
    21:00 -4°C° 0 mm 3 m/S 659 mmHg 77%
    22:00 -4°C° 0 mm 3 m/S 659 mmHg 78%
    23:00 -5°C° 0 mm 3 m/S 659 mmHg 79%
    Mehr zeigen